.
WxDataArchive / Data Records for 2006-10-10
2006-10-09 October 2006 2006-10-11

Data Records for Tuesday, 10 October 2006

Time	Temp	Chill	HIndex	Humid	Dewpt	 Wind 	HiWind	WindDir	Rain 	Barom 
-----	----	-----	------	-----	-----	------	------	-------	-----	----- 
00:00	57.8	57.8	57.8	78	51.0	0	1	112	0.00	30.079 
00:05	57.8	57.8	57.8	78	51.0	1	4	90	0.00	30.079 
00:10	57.8	57.8	57.8	78	51.0	1	2	90	0.00	30.079 
00:15	57.8	57.8	57.8	78	51.0	0	2	68	0.00	30.078 
00:20	57.6	57.6	57.6	78	50.8	0	3	90	0.00	30.078 
00:25	57.6	57.6	57.6	79	51.1	1	3	68	0.00	30.078 
00:30	57.5	57.5	57.5	79	51.0	1	3	45	0.00	30.080 
00:35	57.3	57.3	57.3	80	51.2	1	2	68	0.00	30.080 
00:40	57.2	57.2	57.2	81	51.4	1	2	68	0.00	30.080 
00:45	57.0	57.0	57.0	81	51.2	1	4	112	0.00	30.079 
00:50	57.0	57.0	57.0	82	51.6	1	3	90	0.00	30.079 
00:55	57.0	57.0	57.0	82	51.6	1	3	90	0.00	30.079 
01:00	56.9	56.9	56.9	83	51.8	1	4	90	0.00	30.080 
01:05	56.9	56.9	56.9	83	51.8	1	4	90	0.00	30.080 
01:10	56.7	56.7	56.7	83	51.6	1	4	90	0.00	30.080 
01:15	56.7	56.7	56.7	83	51.6	1	6	68	0.00	30.079 
01:20	56.7	56.7	56.7	83	51.6	1	9	68	0.00	30.079 
01:25	56.6	56.6	56.6	83	51.5	1	5	68	0.00	30.079 
01:30	56.5	56.5	56.5	83	51.4	1	3	90	0.00	30.075 
01:35	56.5	56.5	56.5	83	51.4	2	5	90	0.00	30.075 
01:40	56.3	56.3	56.3	82	50.9	2	6	112	0.00	30.075 
01:45	56.2	56.2	56.2	83	51.1	2	5	112	0.00	30.069 
01:50	56.0	56.0	56.0	83	50.9	1	4	90	0.00	30.069 
01:55	55.9	55.9	55.9	84	51.1	1	3	90	0.00	30.069 
02:00	55.7	55.7	55.7	85	51.3	1	3	90	0.00	30.068 
02:05	55.6	55.6	55.6	85	51.2	1	4	45	0.00	30.068 
02:10	55.4	55.4	55.4	86	51.3	1	4	90	0.00	30.068 
02:15	55.3	55.3	55.3	86	51.2	1	5	90	0.00	30.067 
02:20	55.1	55.1	55.1	86	51.0	1	3	90	0.00	30.067 
02:25	55.0	55.0	55.0	87	51.2	1	3	90	0.00	30.067 
02:30	54.8	54.8	54.8	86	50.7	2	7	112	0.00	30.067 
02:35	54.7	54.7	54.7	86	50.6	2	5	90	0.00	30.067 
02:40	54.7	54.7	54.7	85	50.3	3	6	90	0.00	30.067 
02:45	54.5	54.5	54.5	85	50.1	2	7	112	0.00	30.066 
02:50	54.4	54.4	54.4	84	49.7	2	6	112	0.00	30.066 
02:55	54.2	54.2	54.2	84	49.5	1	3	112	0.00	30.066 
03:00	54.1	54.1	54.1	84	49.4	1	4	90	0.00	30.072 
03:05	53.9	53.9	53.9	84	49.2	1	5	68	0.00	30.072 
03:10	53.8	53.8	53.8	84	49.1	2	7	90	0.00	30.072 
03:15	53.8	53.8	53.8	84	49.1	2	4	90	0.00	30.069 
03:20	53.6	53.6	53.6	84	48.9	2	5	90	0.00	30.069 
03:25	53.5	53.5	53.5	84	48.8	2	7	90	0.00	30.069 
03:30	53.3	53.3	53.3	84	48.6	2	6	90	0.00	30.067 
03:35	53.2	53.2	53.2	84	48.5	1	3	90	0.00	30.067 
03:40	53.1	53.1	53.1	85	48.7	1	4	90	0.00	30.067 
03:45	52.9	52.9	52.9	84	48.2	2	7	112	0.00	30.068 
03:50	52.9	52.9	52.9	85	48.5	2	5	90	0.00	30.068 
03:55	52.9	52.9	52.9	85	48.5	2	5	90	0.00	30.068 
04:00	52.9	52.9	52.9	85	48.5	1	4	90	0.00	30.068 
04:05	52.8	52.8	52.8	84	48.1	1	2	45	0.00	30.068 
04:10	52.8	52.8	52.8	85	48.4	1	3	90	0.00	30.068 
04:15	52.8	52.8	52.8	85	48.4	1	3	112	0.00	30.057 
04:20	52.6	52.6	52.6	85	48.2	2	4	90	0.00	30.057 
04:25	52.5	52.5	52.5	85	48.1	1	3	90	0.00	30.057 
04:30	52.3	52.3	52.3	85	47.9	1	3	112	0.00	30.055 
04:35	52.2	52.2	52.2	86	48.1	1	4	112	0.00	30.055 
04:40	52.2	52.2	52.2	86	48.1	1	3	90	0.00	30.055 
04:45	52.0	52.0	52.0	86	47.9	1	4	90	0.00	30.053 
04:50	52.0	52.0	52.0	86	47.9	1	3	90	0.00	30.053 
04:55	52.0	52.0	52.0	86	47.9	1	3	112	0.00	30.053 
05:00	51.9	51.9	51.9	86	47.8	1	3	112	0.00	30.053 
05:05	51.9	51.9	51.9	87	48.2	1	4	112	0.00	30.053 
05:10	51.7	51.7	51.7	87	48.0	2	6	112	0.00	30.053 
05:15	51.6	51.6	51.6	87	47.9	2	5	90	0.00	30.052 
05:20	51.4	51.4	51.4	87	47.7	2	6	90	0.00	30.052 
05:25	51.4	51.4	51.4	87	47.7	1	4	112	0.00	30.052 
05:30	51.3	51.3	51.3	87	47.6	0	2	112	0.00	30.058 
05:35	51.1	51.1	51.1	88	47.7	0	2	90	0.00	30.058 
05:40	51.1	51.1	51.1	88	47.7	1	3	90	0.00	30.058 
05:45	51.0	51.0	51.0	88	47.6	0	3	135	0.00	30.063 
05:50	51.0	51.0	51.0	88	47.6	0	2	68	0.00	30.063 
05:55	51.0	51.0	51.0	88	47.6	1	3	68	0.00	30.063 
06:00	51.0	51.0	51.0	88	47.6	1	3	90	0.00	30.065 
06:05	51.0	51.0	51.0	88	47.6	0	2	90	0.00	30.065 
06:10	51.0	51.0	51.0	88	47.6	1	3	90	0.00	30.065 
06:15	51.0	51.0	51.0	87	47.3	1	3	90	0.00	30.059 
06:20	51.0	51.0	51.0	87	47.3	1	3	68	0.00	30.059 
06:25	51.0	51.0	51.0	87	47.3	1	2	68	0.00	30.059 
06:30	51.0	51.0	51.0	87	47.3	1	3	68	0.00	30.060 
06:35	51.0	51.0	51.0	88	47.6	1	3	68	0.00	30.060 
06:40	51.0	51.0	51.0	88	47.6	1	3	90	0.00	30.060 
06:45	51.0	51.0	51.0	88	47.6	1	1	90	0.00	30.058 
06:50	51.0	51.0	51.0	88	47.6	1	2	90	0.00	30.058 
06:55	51.0	51.0	51.0	88	47.6	1	3	90	0.00	30.058 
07:00	51.0	51.0	51.0	88	47.6	1	3	68	0.00	30.058 
07:05	51.0	51.0	51.0	88	47.6	1	3	90	0.00	30.058 
07:10	51.0	51.0	51.0	88	47.6	1	3	68	0.00	30.058 
07:15	51.0	51.0	51.0	88	47.6	0	2	90	0.00	30.062 
07:20	51.0	51.0	51.0	89	47.9	0	2	90	0.00	30.062 
07:25	51.0	51.0	51.0	88	47.6	1	3	68	0.00	30.062 
07:30	51.0	51.0	51.0	88	47.6	1	4	68	0.00	30.060 
07:35	51.1	51.1	51.1	88	47.7	1	3	45	0.00	30.060 
07:40	51.1	51.1	51.1	88	47.7	1	3	112	0.00	30.060 
07:45	51.1	51.1	51.1	88	47.7	1	3	68	0.00	30.060 
07:50	51.1	51.1	51.1	88	47.7	1	2	45	0.00	30.060 
07:55	51.1	51.1	51.1	88	47.7	1	3	45	0.00	30.060 
08:00	51.1	51.1	51.1	89	48.0	0	2	68	0.00	30.063 
08:05	51.1	51.1	51.1	89	48.0	0	2	68	0.00	30.063 
08:10	51.1	51.1	51.1	89	48.0	0	1	68	0.00	30.063 
08:15	51.3	51.3	51.3	89	48.2	0	1	68	0.00	30.067 
08:20	51.3	51.3	51.3	88	47.9	1	3	90	0.00	30.067 
08:25	51.3	51.3	51.3	88	47.9	1	5	112	0.00	30.067 
08:30	51.4	51.4	51.4	88	48.0	1	3	112	0.00	30.067 
08:35	51.4	51.4	51.4	88	48.0	1	4	90	0.00	30.067 
08:40	51.6	51.6	51.6	87	47.9	1	4	90	0.00	30.067 
08:45	51.6	51.6	51.6	88	48.2	1	4	90	0.00	30.064 
08:50	51.6	51.6	51.6	87	47.9	1	3	90	0.00	30.064 
08:55	51.7	51.7	51.7	87	48.0	1	4	112	0.00	30.064 
09:00	51.9	51.9	51.9	86	47.8	1	4	90	0.00	30.063 
09:05	52.0	52.0	52.0	86	47.9	1	4	90	0.00	30.063 
09:10	52.2	52.2	52.2	86	48.1	1	4	90	0.00	30.063 
09:15	52.2	52.2	52.2	85	47.8	1	4	90	0.00	30.063 
09:20	52.3	52.3	52.3	85	47.9	2	5	90	0.00	30.063 
09:25	52.3	52.3	52.3	85	47.9	1	3	68	0.00	30.063 
09:30	52.5	52.5	52.5	85	48.1	2	5	45	0.00	30.062 
09:35	52.6	52.6	52.6	84	47.9	1	4	112	0.00	30.062 
09:40	52.8	52.8	52.8	84	48.1	1	4	90	0.00	30.062 
09:45	52.9	52.9	52.9	84	48.2	2	6	90	0.00	30.062 
09:50	52.9	52.9	52.9	83	47.9	2	4	112	0.00	30.062 
09:55	53.2	53.2	53.2	83	48.2	2	5	90	0.00	30.062 
10:00	53.5	53.5	53.5	82	48.1	2	4	90	0.00	30.062 
10:05	53.6	53.6	53.6	81	47.9	3	6	90	0.00	30.062 
10:10	53.8	53.8	53.8	81	48.1	2	6	90	0.00	30.062 
10:15	53.8	53.8	53.8	80	47.8	3	7	68	0.00	30.051 
10:20	53.8	53.8	53.8	80	47.8	2	5	90	0.00	30.051 
10:25	53.9	53.9	53.9	80	47.9	3	5	90	0.00	30.051 
10:30	54.7	54.7	54.7	77	47.6	3	8	90	0.00	30.050 
10:35	55.3	55.3	55.3	77	48.2	5	10	90	0.00	30.050 
10:40	55.7	55.7	55.7	75	47.9	2	9	90	0.00	30.050 
10:45	55.9	55.9	55.9	76	48.4	3	6	90	0.00	30.046 
10:50	55.6	55.6	55.6	76	48.2	3	9	112	0.00	30.046 
10:55	55.7	55.7	55.7	76	48.3	2	5	112	0.00	30.046 
11:00	56.0	56.0	56.0	75	48.2	1	4	68	0.00	30.045 
11:05	56.0	56.0	56.0	75	48.2	1	5	90	0.00	30.045 
11:10	55.7	55.7	55.7	76	48.3	2	5	45	0.00	30.045 
11:15	56.2	56.2	56.2	76	48.7	1	3	45	0.00	30.046 
11:20	56.9	56.9	56.9	73	48.3	2	5	90	0.00	30.046 
11:25	57.2	57.2	57.2	74	49.0	1	5	112	0.00	30.046 
11:30	57.0	57.0	57.0	73	48.4	3	5	90	0.00	30.041 
11:35	57.0	57.0	57.0	74	48.8	1	3	90	0.00	30.041 
11:40	57.0	57.0	57.0	74	48.8	2	6	112	0.00	30.041 
11:45	56.9	56.9	56.9	75	49.1	3	8	90	0.00	30.034 
11:50	57.2	57.2	57.2	76	49.7	1	3	90	0.00	30.034 
11:55	57.8	57.8	57.8	71	48.5	2	6	90	0.00	30.034 
12:00	57.8	57.8	57.8	71	48.5	3	6	90	0.00	30.023 
12:05	57.8	57.8	57.8	72	48.8	2	5	90	0.00	30.023 
12:10	57.8	57.8	57.8	73	49.2	1	6	90	0.00	30.023 
12:15	58.3	58.3	58.3	73	49.7	3	7	90	0.00	30.016 
12:20	58.4	58.4	58.4	73	49.8	3	6	90	0.00	30.016 
12:25	59.3	59.3	59.3	71	49.9	2	6	112	0.00	30.016 
12:30	59.8	59.8	59.8	70	50.0	2	4	90	0.00	30.011 
12:35	60.1	60.1	60.1	71	50.7	2	5	90	0.00	30.011 
12:40	60.1	60.1	60.1	70	50.3	2	6	90	0.00	30.011 
12:45	59.9	59.9	59.9	70	50.1	3	6	90	0.00	30.001 
12:50	59.9	59.9	59.9	71	50.5	2	6	90	0.00	30.001 
12:55	60.4	60.4	60.4	70	50.6	2	7	90	0.00	30.001 
13:00	60.5	60.5	60.5	69	50.3	3	9	90	0.00	29.995 
13:05	60.9	60.9	60.9	69	50.7	2	5	135	0.00	29.995 
13:10	60.9	60.9	60.9	68	50.3	3	6	90	0.00	29.995 
13:15	60.7	60.7	60.7	69	50.5	3	7	90	0.00	29.982 
13:20	61.0	61.0	61.0	69	50.8	3	5	90	0.00	29.982 
13:25	61.2	61.2	61.2	68	50.5	3	6	90	0.00	29.982 
13:30	61.5	61.5	61.5	69	51.2	2	5	90	0.00	29.972 
13:35	62.0	62.0	62.0	66	50.5	2	6	112	0.00	29.972 
13:40	62.3	62.3	62.3	67	51.2	2	5	112	0.00	29.972 
13:45	62.4	62.4	62.4	68	51.7	2	5	112	0.00	29.966 
13:50	62.3	62.3	62.3	68	51.6	2	5	90	0.00	29.966 
13:55	62.4	62.4	62.4	67	51.3	2	4	112	0.00	29.966 
14:00	62.3	62.3	62.3	67	51.2	2	4	90	0.00	29.960 
14:05	62.3	62.3	62.3	66	50.8	2	4	112	0.00	29.960 
14:10	62.3	62.3	62.3	67	51.2	2	5	90	0.00	29.960 
14:15	62.6	62.6	62.6	67	51.5	1	4	90	0.00	29.950 
14:20	62.7	62.7	62.7	68	52.0	2	4	90	0.00	29.950 
14:25	63.1	63.1	63.1	67	52.0	2	5	90	0.00	29.950 
14:30	63.4	63.4	63.4	66	51.8	2	6	90	0.00	29.935 
14:35	63.5	63.5	63.5	65	51.5	3	7	90	0.00	29.935 
14:40	63.7	63.7	63.7	65	51.7	3	5	112	0.00	29.935 
14:45	63.2	63.2	63.2	66	51.6	3	5	90	0.00	29.931 
14:50	63.4	63.4	63.4	66	51.8	2	5	68	0.00	29.931 
14:55	63.5	63.5	63.5	66	51.9	3	6	90	0.00	29.931 
15:00	63.7	63.7	63.7	68	52.9	1	4	90	0.00	29.919 
15:05	64.0	64.0	64.0	68	53.2	1	4	90	0.00	29.919 
15:10	64.0	64.0	64.0	66	52.4	2	4	112	0.00	29.919 
15:15	64.0	64.0	64.0	66	52.4	2	6	112	0.00	29.918 
15:20	64.0	64.0	64.0	66	52.4	1	4	90	0.00	29.918 
15:25	64.2	64.2	64.2	65	52.2	1	4	90	0.00	29.918 
15:30	64.3	64.3	64.3	67	53.1	1	2	90	0.00	29.914 
15:35	64.3	64.3	64.3	65	52.3	2	4	112	0.00	29.914 
15:40	64.2	64.2	64.2	65	52.2	2	5	112	0.00	29.914 
15:45	64.2	64.2	64.2	66	52.6	2	4	90	0.00	29.902 
15:50	64.7	64.7	64.7	65	52.7	2	3	90	0.00	29.902 
15:55	64.8	64.8	64.8	64	52.3	2	6	90	0.00	29.902 
16:00	64.8	64.8	64.8	65	52.8	2	5	90	0.00	29.897 
16:05	64.8	64.8	64.8	65	52.8	2	4	90	0.00	29.897 
16:10	65.0	65.0	65.0	66	53.4	2	5	90	0.00	29.897 
16:15	65.0	65.0	65.0	66	53.4	2	4	90	0.00	29.902 
16:20	65.0	65.0	65.0	65	52.9	2	5	90	0.00	29.902 
16:25	65.0	65.0	65.0	66	53.4	1	4	90	0.00	29.902 
16:30	64.8	64.8	64.8	65	52.8	2	5	112	0.00	29.894 
16:35	64.7	64.7	64.7	66	53.1	2	5	90	0.00	29.894 
16:40	64.7	64.7	64.7	67	53.5	2	4	90	0.00	29.894 
16:45	64.7	64.7	64.7	66	53.1	2	6	90	0.00	29.892 
16:50	64.5	64.5	64.5	66	52.9	1	4	45	0.00	29.892 
16:55	64.5	64.5	64.5	66	52.9	1	4	90	0.00	29.892 
17:00	64.5	64.5	64.5	68	53.7	1	4	90	0.00	29.888 
17:05	64.3	64.3	64.3	67	53.1	1	4	90	0.00	29.888 
17:10	64.3	64.3	64.3	68	53.5	1	3	90	0.00	29.888 
17:15	64.3	64.3	64.3	67	53.1	1	4	90	0.00	29.887 
17:20	64.3	64.3	64.3	66	52.7	2	3	90	0.00	29.887 
17:25	64.5	64.5	64.5	67	53.3	2	4	90	0.00	29.887 
17:30	64.5	64.5	64.5	67	53.3	1	4	90	0.00	29.884 
17:35	64.3	64.3	64.3	66	52.7	1	3	90	0.00	29.884 
17:40	64.3	64.3	64.3	68	53.5	0	2	90	0.00	29.884 
17:45	64.3	64.3	64.3	69	53.9	0	2	90	0.00	29.873 
17:50	64.2	64.2	64.2	68	53.4	1	3	90	0.00	29.873 
17:55	64.0	64.0	64.0	69	53.6	1	3	90	0.00	29.873 
18:00	64.0	64.0	64.0	68	53.2	0	3	90	0.00	29.870 
18:05	63.9	63.9	63.9	68	53.1	0	2	90	0.00	29.870 
18:10	63.9	63.9	63.9	69	53.5	1	2	90	0.00	29.870 
18:15	63.7	63.7	63.7	69	53.3	1	3	90	0.00	29.865 
18:20	63.5	63.5	63.5	69	53.1	1	2	90	0.00	29.865 
18:25	63.5	63.5	63.5	69	53.1	1	3	90	0.00	29.865 
18:30	63.4	63.4	63.4	69	53.0	0	2	90	0.00	29.863 
18:35	63.2	63.2	63.2	69	52.9	1	3	90	0.00	29.863 
18:40	63.1	63.1	63.1	69	52.8	1	3	90	0.00	29.863 
18:45	63.1	63.1	63.1	70	53.2	0	1	90	0.00	29.856 
18:50	62.9	62.9	62.9	71	53.3	0	0	---	0.00	29.856 
18:55	62.6	62.6	62.6	72	53.4	0	0	---	0.00	29.856 
19:00	62.4	62.4	62.4	72	53.2	0	1	90	0.00	29.857 
19:05	62.3	62.3	62.3	71	52.8	0	3	90	0.00	29.857 
19:10	62.1	62.1	62.1	72	53.0	0	2	90	0.00	29.857 
19:15	62.1	62.1	62.1	72	53.0	0	1	90	0.00	29.847 
19:20	62.0	62.0	62.0	72	52.9	1	3	90	0.00	29.847 
19:25	61.8	61.8	61.8	72	52.7	1	3	90	0.00	29.847 
19:30	61.6	61.6	61.6	72	52.5	0	2	90	0.00	29.843 
19:35	61.5	61.5	61.5	73	52.8	0	2	90	0.00	29.843 
19:40	61.3	61.3	61.3	73	52.6	0	1	90	0.00	29.843 
19:45	61.2	61.2	61.2	73	52.5	0	2	90	0.00	29.840 
19:50	61.0	61.0	61.0	73	52.3	1	2	90	0.00	29.840 
19:55	60.9	60.9	60.9	73	52.2	1	3	90	0.00	29.840 
20:00	60.7	60.7	60.7	73	52.0	1	3	90	0.00	29.839 
20:05	60.7	60.7	60.7	73	52.0	2	3	90	0.00	29.839 
20:10	60.5	60.5	60.5	73	51.8	1	4	90	0.00	29.839 
20:15	60.4	60.4	60.4	73	51.7	1	3	90	0.00	29.832 
20:20	60.4	60.4	60.4	73	51.7	1	3	90	0.00	29.832 
20:25	60.2	60.2	60.2	73	51.5	1	3	90	0.00	29.832 
20:30	60.2	60.2	60.2	74	51.9	1	3	90	0.00	29.825 
20:35	60.1	60.1	60.1	74	51.8	1	3	90	0.00	29.825 
20:40	59.9	59.9	59.9	74	51.6	1	3	90	0.00	29.825 
20:45	59.9	59.9	59.9	74	51.6	2	4	90	0.00	29.813 
20:50	59.8	59.8	59.8	74	51.5	2	5	90	0.00	29.813 
20:55	59.8	59.8	59.8	74	51.5	2	5	90	0.00	29.813 
21:00	59.6	59.6	59.6	74	51.3	2	6	90	0.00	29.803 
21:05	59.6	59.6	59.6	74	51.3	2	4	90	0.00	29.803 
21:10	59.5	59.5	59.5	74	51.2	2	4	90	0.00	29.803 
21:15	59.5	59.5	59.5	74	51.2	1	3	90	0.00	29.801 
21:20	59.5	59.5	59.5	73	50.8	2	6	90	0.00	29.801 
21:25	59.5	59.5	59.5	73	50.8	2	5	68	0.00	29.801 
21:30	59.5	59.5	59.5	73	50.8	1	3	112	0.00	29.798 
21:35	59.3	59.3	59.3	73	50.6	1	3	112	0.00	29.798 
21:40	59.3	59.3	59.3	73	50.6	1	3	90	0.00	29.798 
21:45	59.3	59.3	59.3	73	50.6	1	5	135	0.00	29.796 
21:50	59.2	59.2	59.2	73	50.5	1	2	68	0.00	29.796 
21:55	59.2	59.2	59.2	74	50.9	1	3	68	0.00	29.796 
22:00	59.0	59.0	59.0	74	50.7	1	4	90	0.00	29.793 
22:05	59.0	59.0	59.0	74	50.7	1	3	90	0.00	29.793 
22:10	59.0	59.0	59.0	74	50.7	1	3	90	0.00	29.793 
22:15	59.0	59.0	59.0	75	51.1	0	1	90	0.00	29.780 
22:20	58.9	58.9	58.9	75	51.0	0	2	90	0.00	29.780 
22:25	58.7	58.7	58.7	75	50.8	0	1	90	0.00	29.780 
22:30	58.7	58.7	58.7	76	51.2	0	1	90	0.00	29.778 
22:35	58.6	58.6	58.6	76	51.1	0	2	90	0.00	29.778 
22:40	58.6	58.6	58.6	76	51.1	1	2	90	0.00	29.778 
22:45	58.6	58.6	58.6	77	51.4	1	3	90	0.00	29.768 
22:50	58.6	58.6	58.6	77	51.4	0	2	90	0.00	29.768 
22:55	58.4	58.4	58.4	77	51.2	1	3	90	0.00	29.768 
23:00	58.3	58.3	58.3	78	51.5	1	3	90	0.00	29.762 
23:05	58.3	58.3	58.3	79	51.8	1	3	90	0.00	29.762 
23:10	58.1	58.1	58.1	80	52.0	0	2	90	0.00	29.762 
23:15	58.0	58.0	58.0	81	52.2	0	1	90	0.00	29.756 
23:20	58.0	58.0	58.0	80	51.9	0	2	90	0.00	29.756 
23:25	57.8	57.8	57.8	81	52.0	0	1	90	0.00	29.756 
23:30	57.8	57.8	57.8	81	52.0	0	1	90	0.00	29.749 
23:35	57.6	57.6	57.6	84	52.8	0	2	90	0.02	29.749 
23:40	57.3	57.3	57.3	86	53.1	1	2	90	0.00	29.749 
23:45	57.0	57.0	57.0	87	53.2	0	1	90	0.00	29.738 
23:50	56.7	56.7	56.7	88	53.2	0	1	90	0.00	29.738 
23:55	56.6	56.6	56.6	89	53.4	0	0	---	0.00	29.738 

CoCoRaHS
IN-AL-39
A2 Web Hosting
Creative Commons License
GoDaddy
Look for:

loaded 2017-10-20 19:33:12 • last modified 2010-11-18 10:43:29
Privacy PolicyDisclaimer
• wx.awcolley.com is powered by PmWiki v.2002016 •
• all content (unless otherwise noted) © 2017 A W Colley